Tiempo cada hora Siguiri

Hoy, 21 Octubre, Miércoles

Tiempo Temperatura Precipitaciones Viento Presión Humedad
00:00 +27°C° 0 mm 1 mps 715 mmHg 27%
01:00 +27°C° 0 mm 2 mps 715 mmHg 27%
02:00 +26°C° 0 mm 1 mps 714 mmHg 29%
03:00 +25°C° 0 mm 1 mps 714 mmHg 30%
04:00 +25°C° 0 mm 1 mps 714 mmHg 32%
05:00 +24°C° 0 mm 2 mps 714 mmHg 37%
06:00 +24°C° 0 mm 2 mps 715 mmHg 41%
07:00 +24°C° 0 mm 2 mps 715 mmHg 46%
08:00 +27°C° 0 mm 2 mps 716 mmHg 41%
09:00 +30°C° 0 mm 2 mps 716 mmHg 37%
10:00 +33°C° 0 mm 1 mps 717 mmHg 33%
11:00 +35°C° 0 mm 2 mps 716 mmHg 27%
12:00 +36°C° 0 mm 2 mps 716 mmHg 22%
13:00 +38°C° 0 mm 2 mps 715 mmHg 17%
14:00 +38°C° 0 mm 3 mps 714 mmHg 17%
15:00 +37°C° 0 mm 3 mps 714 mmHg 17%
16:00 +37°C° 0 mm 3 mps 713 mmHg 17%
17:00 +35°C° 0 mm 3 mps 713 mmHg 20%
18:00 +32°C° 0 mm 2 mps 714 mmHg 23%
19:00 +29°C° 0 mm 1 mps 714 mmHg 26%
20:00 +29°C° 0 mm 1 mps 714 mmHg 27%
21:00 +28°C° 0 mm 1 mps 715 mmHg 27%
22:00 +28°C° 0 mm 2 mps 715 mmHg 28%
23:00 +27°C° 0 mm 1 mps 715 mmHg 29%

Mañana, 22 Octubre, Jueves

Tiempo Temperatura Precipitaciones Viento Presión Humedad
00:00 +27°C° 0 mm 1 mps 715 mmHg 30%
01:00 +24°C° 0 mm 0 mps 715 mmHg 32%
02:00 +24°C° 0 mm 0 mps 715 mmHg 33%
03:00 +23°C° 0 mm 0 mps 715 mmHg 34%
04:00 +23°C° 0 mm 0 mps 714 mmHg 35%
05:00 +24°C° 0 mm 1 mps 715 mmHg 37%
06:00 +24°C° 0 mm 1 mps 715 mmHg 39%
07:00 +24°C° 0 mm 1 mps 716 mmHg 40%
08:00 +27°C° 0 mm 1 mps 716 mmHg 34%
09:00 +30°C° 0 mm 1 mps 717 mmHg 28%
10:00 +33°C° 0 mm 1 mps 717 mmHg 22%
11:00 +35°C° 0 mm 3 mps 716 mmHg 19%
12:00 +37°C° 0 mm 4 mps 716 mmHg 16%
13:00 +39°C° 0 mm 5 mps 715 mmHg 13%
14:00 +39°C° 0 mm 5 mps 715 mmHg 14%
15:00 +39°C° 0 mm 5 mps 714 mmHg 14%
16:00 +37°C° 0 mm 5 mps 714 mmHg 15%
17:00 +35°C° 0 mm 3 mps 714 mmHg 18%
18:00 +31°C° 0 mm 1 mps 714 mmHg 21%
19:00 +27°C° 0 mm 0 mps 714 mmHg 24%
20:00 +26°C° 0 mm 0 mps 714 mmHg 24%
21:00 +26°C° 0 mm 0 mps 715 mmHg 25%
22:00 +27°C° 0 mm 1 mps 715 mmHg 25%
23:00 +25°C° 0 mm 0 mps 715 mmHg 26%

Pasado mañana, 23 Octubre, Viernes

Tiempo Temperatura Precipitaciones Viento Presión Humedad
00:00 +24°C° 0 mm 0 mps 715 mmHg 26%
01:00 +24°C° 0 mm 0 mps 715 mmHg 27%
02:00 +25°C° 0 mm 1 mps 715 mmHg 27%
03:00 +25°C° 0 mm 1 mps 715 mmHg 27%
04:00 +24°C° 0 mm 1 mps 714 mmHg 28%
05:00 +24°C° 0 mm 1 mps 715 mmHg 30%
06:00 +24°C° 0 mm 1 mps 715 mmHg 32%
07:00 +24°C° 0 mm 1 mps 716 mmHg 34%
08:00 +27°C° 0 mm 1 mps 716 mmHg 28%
09:00 +30°C° 0 mm 2 mps 717 mmHg 22%
10:00 +34°C° 0 mm 2 mps 717 mmHg 17%
11:00 +35°C° 0 mm 3 mps 716 mmHg 16%
12:00 +36°C° 0 mm 4 mps 716 mmHg 15%
13:00 +39°C° 0 mm 6 mps 715 mmHg 14%
14:00 +39°C° 0 mm 5 mps 715 mmHg 14%
15:00 +37°C° 0 mm 4 mps 714 mmHg 15%
16:00 +37°C° 0 mm 4 mps 714 mmHg 15%
17:00 +35°C° 0 mm 3 mps 714 mmHg 18%
18:00 +31°C° 0 mm 2 mps 714 mmHg 21%
19:00 +29°C° 0 mm 2 mps 714 mmHg 24%
20:00 +28°C° 0 mm 1 mps 714 mmHg 24%
21:00 +28°C° 0 mm 1 mps 715 mmHg 25%
22:00 +27°C° 0 mm 1 mps 715 mmHg 26%
23:00 +27°C° 0 mm 1 mps 715 mmHg 26%

24 Octubre, Sábado

Tiempo Temperatura Precipitaciones Viento Presión Humedad
00:00 +26°C° 0 mm 1 mps 715 mmHg 27%
01:00 +25°C° 0 mm 1 mps 714 mmHg 28%
02:00 +25°C° 0 mm 1 mps 714 mmHg 28%
03:00 +25°C° 0 mm 1 mps 714 mmHg 29%
04:00 +24°C° 0 mm 1 mps 714 mmHg 29%
05:00 +24°C° 0 mm 1 mps 714 mmHg 32%
06:00 +24°C° 0 mm 1 mps 715 mmHg 35%
07:00 +24°C° 0 mm 1 mps 715 mmHg 37%
08:00 +26°C° 0 mm 1 mps 716 mmHg 32%
09:00 +29°C° 0 mm 1 mps 716 mmHg 27%
10:00 +32°C° 0 mm 1 mps 717 mmHg 22%
11:00 +34°C° 0 mm 2 mps 716 mmHg 20%
12:00 +35°C° 0 mm 3 mps 716 mmHg 18%
13:00 +37°C° 0 mm 4 mps 715 mmHg 16%
14:00 +37°C° 0 mm 4 mps 715 mmHg 17%
15:00 +37°C° 0 mm 4 mps 714 mmHg 17%
16:00 +36°C° 0 mm 4 mps 714 mmHg 18%
17:00 +34°C° 0 mm 3 mps 714 mmHg 21%
18:00 +31°C° 0 mm 2 mps 714 mmHg 25%
19:00 +26°C° 0 mm 0 mps 714 mmHg 28%
20:00 +28°C° 0 mm 1 mps 714 mmHg 28%
21:00 +27°C° 0 mm 1 mps 715 mmHg 29%
22:00 +27°C° 0 mm 1 mps 715 mmHg 29%
23:00 +26°C° 0 mm 1 mps 715 mmHg 30%

25 Octubre, Domingo

Tiempo Temperatura Precipitaciones Viento Presión Humedad
00:00 +24°C° 0 mm 0 mps 715 mmHg 31%
01:00 +23°C° 0 mm 0 mps 715 mmHg 32%
02:00 +23°C° 0 mm 0 mps 714 mmHg 33%
03:00 +22°C° 0 mm 0 mps 714 mmHg 34%
04:00 +24°C° 0 mm 1 mps 714 mmHg 36%
05:00 +24°C° 0 mm 1 mps 714 mmHg 37%
06:00 +24°C° 0 mm 1 mps 715 mmHg 39%
07:00 +24°C° 0 mm 1 mps 715 mmHg 41%
08:00 +26°C° 0 mm 1 mps 715 mmHg 35%
09:00 +29°C° 0 mm 2 mps 716 mmHg 29%
10:00 +32°C° 0 mm 2 mps 717 mmHg 22%
11:00 +34°C° 0 mm 3 mps 716 mmHg 20%
12:00 +35°C° 0 mm 4 mps 715 mmHg 19%
13:00 +37°C° 0 mm 5 mps 715 mmHg 17%
14:00 +37°C° 0 mm 5 mps 714 mmHg 17%
15:00 +36°C° 0 mm 4 mps 714 mmHg 17%
16:00 +36°C° 0 mm 4 mps 713 mmHg 17%
17:00 +34°C° 0 mm 3 mps 713 mmHg 20%
18:00 +31°C° 0 mm 2 mps 713 mmHg 23%
19:00 +28°C° 0 mm 1 mps 713 mmHg 26%
20:00 +28°C° 0 mm 1 mps 714 mmHg 27%
21:00 +27°C° 0 mm 1 mps 714 mmHg 27%
22:00 +27°C° 0 mm 1 mps 715 mmHg 28%
23:00 +26°C° 0 mm 1 mps 715 mmHg 29%

26 Octubre, Lunes

Tiempo Temperatura Precipitaciones Viento Presión Humedad
00:00 +26°C° 0 mm 1 mps 715 mmHg 30%
01:00 +23°C° 0 mm 0 mps 714 mmHg 30%
02:00 +23°C° 0 mm 0 mps 714 mmHg 31%
03:00 +22°C° 0 mm 0 mps 714 mmHg 32%
04:00 +22°C° 0 mm 0 mps 714 mmHg 33%
05:00 +22°C° 0 mm 0 mps 714 mmHg 35%
06:00 +24°C° 0 mm 1 mps 715 mmHg 36%
07:00 +24°C° 0 mm 1 mps 715 mmHg 37%
08:00 +27°C° 0 mm 2 mps 715 mmHg 31%
09:00 +29°C° 0 mm 3 mps 716 mmHg 25%
10:00 +33°C° 0 mm 4 mps 716 mmHg 20%
11:00 +34°C° 0 mm 5 mps 716 mmHg 18%
12:00 +35°C° 0 mm 5 mps 715 mmHg 17%
13:00 +36°C° 0 mm 5 mps 714 mmHg 16%
14:00 +36°C° 0 mm 5 mps 714 mmHg 16%
15:00 +36°C° 0 mm 4 mps 713 mmHg 16%
16:00 +36°C° 0 mm 4 mps 713 mmHg 16%
17:00 +34°C° 0 mm 3 mps 713 mmHg 19%
18:00 +31°C° 0 mm 2 mps 713 mmHg 21%
19:00 +28°C° 0 mm 1 mps 713 mmHg 24%
20:00 +28°C° 0 mm 1 mps 713 mmHg 25%
21:00 +25°C° 0 mm 0 mps 714 mmHg 25%
22:00 +24°C° 0 mm 0 mps 714 mmHg 26%
23:00 +24°C° 0 mm 0 mps 714 mmHg 27%

27 Octubre, Martes

Tiempo Temperatura Precipitaciones Viento Presión Humedad
00:00 +26°C° 0 mm 1 mps 714 mmHg 27%
01:00 +25°C° 0 mm 1 mps 714 mmHg 27%
02:00 +24°C° 0 mm 1 mps 714 mmHg 28%
03:00 +22°C° 0 mm 0 mps 713 mmHg 29%
04:00 +21°C° 0 mm 0 mps 713 mmHg 30%
05:00 +22°C° 0 mm 0 mps 713 mmHg 32%
06:00 +22°C° 0 mm 0 mps 714 mmHg 34%
07:00 +22°C° 0 mm 0 mps 714 mmHg 36%
08:00 +26°C° 0 mm 1 mps 715 mmHg 30%
09:00 +29°C° 0 mm 3 mps 715 mmHg 25%
10:00 +33°C° 0 mm 4 mps 716 mmHg 20%
11:00 +34°C° 0 mm 4 mps 715 mmHg 18%
12:00 +35°C° 0 mm 4 mps 715 mmHg 17%
13:00 +36°C° 0 mm 4 mps 714 mmHg 16%
14:00 +36°C° 0 mm 4 mps 713 mmHg 16%
15:00 +36°C° 0 mm 4 mps 713 mmHg 16%
16:00 +36°C° 0 mm 3 mps 712 mmHg 16%
17:00 +34°C° 0 mm 3 mps 712 mmHg 19%
18:00 +31°C° 0 mm 2 mps 713 mmHg 21%
19:00 +28°C° 0 mm 1 mps 713 mmHg 24%
20:00 +28°C° 0 mm 1 mps 713 mmHg 24%
21:00 +27°C° 0 mm 1 mps 714 mmHg 24%
22:00 +27°C° 0 mm 1 mps 714 mmHg 25%
23:00 +26°C° 0 mm 1 mps 714 mmHg 25%
Mostrar más

Necesitamos Su Consentimiento

Meteoprog y nuestros Proveedores de Servicios pueden almacenar y acceder a sus datos personales como cookies, identificadores de dispositivo u otras tecnologías similares de su dispositivo y procesar dichos datos para personalizar contenido y anuncios, además de ofrecer funciones de redes sociales y analizar el tráfico.

  • Almacenar y/o acceder a información en su dispositivo

    Se puede almacenar o acceder a cookies, identificadores de dispositivo u otra información de su dispositivo para los fines anteriormente indicados.

  • Anuncios y contenido personalizados, medición de anuncios y contenido, percepciones del público, y desarrollo de productos

    Los anuncios y el contenido pueden personalizarse en base a su perfil. Se pueden añadir más datos para personalizar mejor los anuncios y contenidos. Se puede medir el rendimiento de los anuncios y contenidos. Se puede obtener la percepción sobre el público que ha visto los anuncios y contenidos. Dichos datos pueden usarse para desarrollar o mejorar la experiencia del usuario, sistemas y software.

Al hacer clic en ‘Estoy De Acuerdo’ usted permitirá el uso de las cookies, identificadores de dispositivo, balizas web u otras tecnologías similares indicadas. Su configuración puede cambiarse desde el navegador de su dispositivo.

Para ciertos fines, los intereses legítimos pueden ser considerados por encima del consentimiento. Puede leer más sobre ello en nuestra Política de Privacidad y Cookies.